Location: Newark
(53.3333°N, 83.7500°E)
Time: 09:17:17
(UTC+00:00)

Vanguard 3 - Visible Passes

Search period start: 13 November 2019 00:00
Search period end: 23 November 2019 00:00
Orbit: 508 x 3263 km, 33.3° (Epoch: 12 November)

Date Brightness Start Highest point End Pass type
(mag) Time Alt. Az. Time Alt. Az. Time Alt. Az.
13 Nov 10.3 11:28:19 10° SW 11:41:43 30° S 11:50:55 10° SE visible
13 Nov 9.9 13:43:41 10° WSW 13:53:22 23° SSW 13:57:56 17° S visible
14 Nov 10.2 12:26:41 10° WSW 12:39:18 29° SSW 12:47:50 10° SE visible
14 Nov 10.2 14:43:39 10° WSW 14:50:08 16° SW 14:52:48 14° SSW visible
15 Nov 10.4 11:10:07 10° SW 11:24:41 32° S 11:34:51 10° SE visible
15 Nov 10.1 13:25:48 10° WSW 13:36:31 24° SSW 13:43:07 13° SSE visible
16 Nov 10.4 12:08:39 10° WSW 12:22:19 31° SSW 12:31:42 10° SE visible
16 Nov 10.3 14:26:02 10° WSW 14:33:16 16° SW 14:38:03 12° S visible
17 Nov 10.6 10:52:00 10° WSW 11:07:32 34° S 11:18:38 10° SE visible
17 Nov 10.4 13:07:56 10° WSW 13:19:32 25° SSW 13:27:46 10° SSE visible
18 Nov 10.5 11:50:40 10° WSW 12:05:11 32° SSW 12:15:26 10° SE visible
18 Nov 10.5 14:08:24 10° WSW 14:16:16 17° SW 14:22:24 10° S visible
19 Nov 10.7 10:34:00 10° WSW 10:50:14 36° S 11:02:17 10° SE visible
19 Nov 10.6 12:50:05 10° WSW 13:02:26 25° SSW 13:11:22 10° SSE visible
20 Nov 10.7 11:32:45 10° WSW 11:47:56 32° SSW 11:59:00 10° SE visible
20 Nov 10.8 13:50:49 10° WSW 13:59:07 17° SW 14:05:44 10° S visible
21 Nov 10.7 12:32:17 10° WSW 12:45:11 25° SSW 12:54:49 10° SSE visible
22 Nov 10.9 11:14:56 10° WSW 11:30:33 32° SSW 11:42:25 10° SE visible
22 Nov 11.0 13:33:19 10° WSW 13:41:51 16° SW 13:48:49 10° SSW visible
